Amateur Radio Satellites - All Passes

Search period start: 18 May 2013 16:07
Search period end: 19 May 2013 16:07
Location: Bismarck, 46.7731°N, 100.8200°W

Satellite Date Start Highest point End Downlink Frequencies (MHz)
Time Altitude Azimuth
AO-7 18 May 16:25:40 16:33:11 40° 57° (ENE) 16:40:44 29.400 - 29.500 MHz
Sapphire 18 May 16:38:32 16:42:34 21° 35° (NE) 16:46:35 437.095 MHz 1200 baud AX-25 AFSK
Saudisat 1A 18 May 16:45:15 16:49:46 62° 237° (WSW) 16:54:11 436.775 MHz
RS-15 18 May 16:45:40 16:54:45 26° 102° (ESE) 17:03:33 29.354 - 29.394 USB, Beacon 29.352 USB
TMSAT-1 18 May 17:13:59 17:19:08 53° 260° (W) 17:24:21 436.925 FM
SO-50 18 May 17:17:12 17:19:52 15° 26° (NNE) 17:22:31 436.795 FM
Uosat F 18 May 17:28:27 17:32:13 21° 268° (W) 17:35:59 435.120 FM
Gurwin Techsat 1B 18 May 17:34:06 17:38:28 26° 267° (W) 17:42:51 435.225 FM
PCSat 18 May 17:48:38 17:53:58 53° 51° (NE) 17:59:16 145.825 MHz
JAS-1B 18 May 18:17:08 18:22:16 17° 50° (NE) 18:27:00 435.800 - 435.900 CW/SSB
AO-7 18 May 18:17:39 18:25:44 56° 258° (WSW) 18:33:55 29.400 - 29.500 MHz
Sapphire 18 May 18:21:22 18:26:50 84° 57° (ENE) 18:32:16 437.095 MHz 1200 baud AX-25 AFSK
Hamsat 18 May 18:42:40 18:45:24 17° 62° (ENE) 18:48:09 145.90 MHz
RS-15 18 May 18:53:36 19:05:40 86° 124° (SE) 19:17:12 29.354 - 29.394 USB, Beacon 29.352 USB
SO-50 18 May 18:56:58 19:01:30 57° 48° (NE) 19:05:56 436.795 FM
PCSat 18 May 19:32:34 19:37:08 28° 250° (WSW) 19:41:39 145.825 MHz
HO-68 18 May 19:38:54 19:40:57 11° 41° (NE) 19:42:59 435.675 MHz FM
STRAND 1 18 May 20:02:06 20:07:11 58° 101° (E) 20:12:14 ?
JAS-1B 18 May 20:02:26 20:11:36 63° 69° (ENE) 20:19:27 435.800 - 435.900 CW/SSB
Sapphire 18 May 20:06:20 20:09:33 16° 256° (WSW) 20:12:46 437.095 MHz 1200 baud AX-25 AFSK
Hamsat 18 May 20:16:58 20:21:05 54° 260° (W) 20:25:16 145.90 MHz
AO-7 18 May 20:19:22 20:20:27 10° 279° (W) 20:21:32 29.400 - 29.500 MHz
SO-67 18 May 20:34:19 20:37:53 84° 77° (ENE) 20:41:29 435.3500 MHz FM
SO-50 18 May 20:38:23 20:41:44 21° 247° (WSW) 20:45:02 436.795 FM
JAS-2 18 May 20:43:29 20:48:57 21° 52° (NE) 20:54:26 435.800 - 435.900 CW/SSB, 435.910 FM
AO-40 18 May 20:43:38 04:21:14 41° 178° (S) 10:13:10 Beacon 2401.320
UOSAT-12 18 May 20:45:22 20:49:07 24° 36° (NE) 20:52:52 437.025 FM, 437.400 FM
OPAL 18 May 21:02:35 21:03:14 10° 49° (NE) 21:03:53 ?
RS-15 18 May 21:08:30 21:19:30 42° 332° (NNW) 21:30:04 29.354 - 29.394 USB, Beacon 29.352 USB
HO-68 18 May 21:20:13 21:26:54 46° 62° (ENE) 21:33:37 435.675 MHz FM
STRAND 1 18 May 21:42:07 21:46:00 22° 300° (WNW) 21:49:53 ?
JAS-1B 18 May 21:53:59 22:02:23 36° 265° (W) 22:09:49 435.800 - 435.900 CW/SSB
Oscar 11 18 May 22:03:36 22:07:36 38° 69° (ENE) 22:11:37 145.825 FM, Beacon 2401.500 USB
UOSAT-12 18 May 22:25:08 22:29:43 67° 236° (WSW) 22:34:16 437.025 FM, 437.400 FM
JAS-2 18 May 22:25:08 22:32:48 78° 72° (ENE) 22:40:41 435.800 - 435.900 CW/SSB, 435.910 FM
OPAL 18 May 22:36:00 22:41:05 56° 68° (ENE) 22:46:09 ?
HO-68 18 May 23:08:00 23:14:40 41° 262° (W) 23:21:22 435.675 MHz FM
RS-15 18 May 23:25:52 23:35:47 31° 6° (N) 23:45:20 29.354 - 29.394 USB, Beacon 29.352 USB
Oscar 11 18 May 23:40:30 23:43:57 23° 267° (W) 23:47:26 145.825 FM, Beacon 2401.500 USB
KITSAT 1 18 May 23:51:55 23:58:26 28° 106° (ESE) 00:04:59 435.175 FM
JAS-2 19 May 00:12:22 00:18:31 26° 272° (W) 00:24:50 435.800 - 435.900 CW/SSB, 435.910 FM
OPAL 19 May 00:16:19 00:20:18 22° 266° (W) 00:24:17 ?
RS-15 19 May 01:40:23 01:51:24 53° 38° (NE) 02:02:00 29.354 - 29.394 USB, Beacon 29.352 USB
KITSAT 1 19 May 01:45:01 01:53:05 77° 307° (NW) 02:01:15 435.175 FM
MaSat-1 19 May 02:09:22 02:12:30 14° 100° (E) 02:15:26 437.345 MHz
AO-27 19 May 02:27:38 02:30:22 14° 88° (E) 02:33:05 436.795 MHz FM
Oscar 16 19 May 02:27:49 02:31:31 19° 91° (E) 02:35:11 437.025 USB, Beacon 2401.1428
ITAMSAT 1 19 May 02:34:59 02:38:12 16° 89° (E) 02:41:24 435.822 SSB
Uribyol 2 19 May 03:15:54 03:20:47 38° 97° (E) 03:25:38 436.500 FM
Oscar 19 19 May 03:27:33 03:32:40 55° 100° (E) 03:37:42 437.125 CW, 437.150 USB
KITSAT 1 19 May 03:43:06 03:49:53 28° 332° (NNW) 03:56:42 435.175 FM
MaSat-1 19 May 03:47:00 03:54:06 68° 115° (ESE) 03:59:56 437.345 MHz
RS-15 19 May 03:53:14 04:04:00 58° 245° (WSW) 04:14:30 29.354 - 29.394 USB, Beacon 29.352 USB
Uosat F 19 May 03:54:53 03:57:13 13° 88° (E) 03:59:32 435.120 FM
AO-Echo 19 May 04:04:07 04:08:26 34° 97° (E) 04:12:47 ?
AO-27 19 May 04:05:19 04:10:34 84° 286° (WNW) 04:15:48 436.795 MHz FM
Oscar 16 19 May 04:06:11 04:11:19 62° 289° (WNW) 04:16:24 437.025 USB, Beacon 2401.1428
Gurwin Techsat 1B 19 May 04:07:44 04:10:49 15° 88° (E) 04:13:54 435.225 FM
ITAMSAT 1 19 May 04:13:03 04:18:17 74° 287° (WNW) 04:23:29 435.822 SSB
Oscar 10/S400 19 May 04:50:15 05:14:07 10° 72° (ENE) 05:36:00 145.825 - 145.975 CW/USB, Beacon 145.810 USB
Uribyol 2 19 May 04:55:35 05:00:12 33° 295° (WNW) 05:04:49 436.500 FM
Oscar 19 19 May 05:07:38 05:11:40 24° 299° (WNW) 05:15:41 437.125 CW, 437.150 USB
TMSAT-1 19 May 05:26:48 05:31:59 50° 99° (E) 05:37:07 436.925 FM
MaSat-1 19 May 05:30:51 05:36:38 29° 311° (NW) 05:41:30 437.345 MHz
ISS 19 May 05:31:18 05:34:25 38° 144° (SE) 05:37:33 145.800 FM
Uosat F 19 May 05:31:38 05:36:42 85° 286° (WNW) 05:41:43 435.120 FM
KITSAT 1 19 May 05:42:54 05:48:26 19° 2° (N) 05:53:59 435.175 FM
AO-Echo 19 May 05:43:06 05:47:11 30° 294° (WNW) 05:51:19 ?
STRAND 1 19 May 05:44:16 05:47:35 18° 58° (ENE) 05:50:55 ?
Gurwin Techsat 1B 19 May 05:46:06 05:51:27 79° 286° (WNW) 05:56:45 435.225 FM
AO-27 19 May 05:46:38 05:49:19 14° 305° (NW) 05:52:00 436.795 MHz FM
Oscar 16 19 May 05:48:40 05:49:40 11° 308° (NW) 05:50:40 437.025 USB, Beacon 2401.1428
ITAMSAT 1 19 May 05:54:43 05:56:55 13° 306° (NW) 05:59:07 435.822 SSB
RS-15 19 May 06:10:01 06:13:35 12° 268° (W) 06:17:08 29.354 - 29.394 USB, Beacon 29.352 USB
AO-7 19 May 06:15:39 06:23:34 44° 99° (E) 06:31:27 29.400 - 29.500 MHz
Saudisat 1A 19 May 06:56:26 06:59:34 19° 112° (ESE) 07:02:44 436.775 MHz
TMSAT-1 19 May 07:07:18 07:11:38 26° 298° (WNW) 07:15:58 436.925 FM
ISS 19 May 07:07:50 07:11:06 50° 343° (NNW) 07:14:24 145.800 FM
Uosat F 19 May 07:12:16 07:14:45 14° 305° (NW) 07:17:14 435.120 FM
STRAND 1 19 May 07:21:08 07:26:13 75° 257° (WSW) 07:31:21 ?
Gurwin Techsat 1B 19 May 07:28:00 07:30:35 14° 305° (NW) 07:33:11 435.225 FM
KITSAT 1 19 May 07:39:49 07:46:52 31° 31° (NNE) 07:53:53 435.175 FM
Hamsat 19 May 08:01:02 08:04:29 23° 93° (E) 08:07:55 145.90 MHz
AO-7 19 May 08:08:31 08:16:28 50° 299° (WNW) 08:24:24 29.400 - 29.500 MHz
Saudisat 1A 19 May 08:34:15 08:38:49 66° 310° (NW) 08:43:26 436.775 MHz
PCSat 19 May 08:34:23 08:38:43 25° 109° (ESE) 08:43:05 145.825 MHz
ISS 19 May 08:45:09 08:48:16 34° 3° (N) 08:51:24 145.800 FM
Sapphire 19 May 09:06:13 09:11:17 43° 114° (ESE) 09:16:23 437.095 MHz 1200 baud AX-25 AFSK
SO-67 19 May 09:31:44 09:35:20 75° 102° (ESE) 09:38:55 435.3500 MHz FM
KITSAT 1 19 May 09:35:14 09:43:26 86° 56° (NE) 09:51:34 435.175 FM
JAS-1B 19 May 09:36:30 09:42:53 67° 102° (ESE) 09:48:35 435.800 - 435.900 CW/SSB
Hamsat 19 May 09:36:39 09:40:42 39° 290° (WNW) 09:44:45 145.90 MHz
AO-7 19 May 10:03:12 10:07:21 15° 322° (NW) 10:11:30 29.400 - 29.500 MHz
PCSat 19 May 10:16:27 10:21:47 57° 308° (NW) 10:27:10 145.825 MHz
Saudisat 1A 19 May 10:16:28 10:19:24 16° 331° (NNW) 10:22:21 436.775 MHz
ISS 19 May 10:21:59 10:25:21 69° 23° (NNE) 10:28:43 145.800 FM
HO-68 19 May 10:32:02 10:38:27 34° 96° (E) 10:44:50 435.675 MHz FM
OPAL 19 May 10:46:40 10:47:12 10° 88° (E) 10:47:44 ?
Sapphire 19 May 10:49:49 10:54:48 37° 314° (NW) 10:59:50 437.095 MHz 1200 baud AX-25 AFSK
SO-50 19 May 10:54:59 10:59:44 65° 123° (ESE) 11:04:26 436.795 FM
JAS-2 19 May 11:17:50 11:24:58 56° 98° (E) 11:31:14 435.800 - 435.900 CW/SSB, 435.910 FM
Oscar 11 19 May 11:24:30 11:28:46 51° 100° (E) 11:33:02 145.825 FM, Beacon 2401.500 USB
JAS-1B 19 May 11:28:04 11:32:54 23° 306° (NW) 11:37:19 435.800 - 435.900 CW/SSB
KITSAT 1 19 May 11:31:48 11:37:52 24° 256° (WSW) 11:43:56 435.175 FM
ISS 19 May 11:59:04 12:01:51 24° 221° (SW) 12:04:37 145.800 FM
PCSat 19 May 12:03:09 12:06:26 16° 331° (NNW) 12:09:43 145.825 MHz
HO-68 19 May 12:19:30 12:26:25 54° 295° (WNW) 12:33:20 435.675 MHz FM
OPAL 19 May 12:21:53 12:26:57 78° 106° (ESE) 12:31:56 ?
MaSat-1 19 May 12:30:30 12:34:10 41° 53° (NE) 12:37:04 437.345 MHz
SO-50 19 May 12:36:49 12:40:46 25° 323° (NW) 12:44:41 436.795 FM
Sapphire 19 May 12:37:50 12:39:54 12° 338° (NNW) 12:41:59 437.095 MHz 1200 baud AX-25 AFSK
UOSAT-12 19 May 12:40:41 12:43:47 18° 112° (ESE) 12:46:54 437.025 FM, 437.400 FM
Uribyol 2 19 May 13:00:59 13:03:14 13° 54° (NE) 13:05:30 436.500 FM
Oscar 11 19 May 13:01:36 13:04:39 19° 298° (WNW) 13:07:43 145.825 FM, Beacon 2401.500 USB
JAS-2 19 May 13:03:16 13:09:37 33° 301° (WNW) 13:15:21 435.800 - 435.900 CW/SSB, 435.910 FM
Oscar 19 19 May 13:10:34 13:13:50 17° 57° (ENE) 13:17:07 437.125 CW, 437.150 USB
Saudisat 1A 19 May 13:41:09 13:42:58 12° 21° (NNE) 13:44:46 436.775 MHz
Oscar 16 19 May 13:47:20 13:52:06 38° 66° (ENE) 13:56:52 437.025 USB, Beacon 2401.1428
AO-27 19 May 13:48:05 13:52:31 30° 64° (ENE) 13:56:58 436.795 MHz FM
ITAMSAT 1 19 May 13:55:29 14:00:04 33° 65° (ENE) 14:04:40 435.822 SSB
OPAL 19 May 14:02:02 14:05:15 17° 305° (NW) 14:08:27 ?
HO-68 19 May 14:09:23 14:12:36 14° 317° (NW) 14:15:49 435.675 MHz FM
MaSat-1 19 May 14:14:25 14:15:32 11° 261° (W) 14:16:35 437.345 MHz
UOSAT-12 19 May 14:19:00 14:23:30 64° 310° (NW) 14:28:03 437.025 FM, 437.400 FM
Uribyol 2 19 May 14:36:43 14:41:52 76° 73° (ENE) 14:47:05 436.500 FM
Oscar 19 19 May 14:47:22 14:52:34 80° 256° (WSW) 14:57:49 437.125 CW, 437.150 USB
Uosat F 19 May 15:10:24 15:14:29 26° 63° (ENE) 15:18:36 435.120 FM
TMSAT-1 19 May 15:13:19 15:16:37 17° 57° (ENE) 15:19:55 436.925 FM
Saudisat 1A 19 May 15:19:40 15:23:58 38° 43° (NE) 15:28:11 436.775 MHz
AO-Echo 19 May 15:19:58 15:24:47 62° 72° (ENE) 15:29:30 ?
Oscar 16 19 May 15:26:53 15:31:30 32° 265° (W) 15:36:11 437.025 USB, Beacon 2401.1428
AO-27 19 May 15:27:01 15:31:54 42° 262° (W) 15:36:49 436.795 MHz FM
AO-7 19 May 15:28:33 15:34:17 21° 45° (NE) 15:40:02 29.400 - 29.500 MHz
Gurwin Techsat 1B 19 May 15:31:12 15:35:51 32° 65° (ENE) 15:40:32 435.225 FM
ITAMSAT 1 19 May 15:34:46 15:39:31 37° 263° (W) 15:44:20 435.822 SSB
PCSat 19 May 15:36:05 15:38:34 13° 24° (NNE) 15:41:02 145.825 MHz
UOSAT-12 19 May 16:01:45 16:04:34 16° 332° (NNW) 16:07:24 437.025 FM, 437.400 FM

Developed and maintained by Chris Peat, Heavens-Above GmbH. Please read the updated FAQ before sending e-mail. Imprint. DLR
